This demonstration page uses our WeatherBlox Daily Observations layout. Learn more.

Left ArrowRight Arrow

Hourly Observations for November 27, 2021

Temp ( °F °C ) Dew Point ( °F °C ) Humidity (%) Winds ( mph kmh ) Pressure ( in mb ) Visibility ( mi km ) Precip ( " mm )
12:56 am 00:56 Mostly Clear 46 7.8 25 -3.9 44 44 WNW 7 11 29.85 1011 10 16 0.00 0.00
1:56 am 01:56 Clear 44 6.7 22 -5.6 41 41 W 8 13 29.85 1011 10 16 0.00 0.00
2:56 am 02:56 Clear 41 5 22 -5.6 47 47 NW 12 19 29.87 1012 10 16 0.00 0.00
3:56 am 03:56 Clear 40 4.4 23 -5 51 51 NW 12 19 29.88 1012 10 16 0.00 0.00
4:56 am 04:56 Clear 40 4.4 25 -3.9 55 55 NW 13 20 29.93 1014 10 16 0.00 0.00
5:56 am 05:56 Clear 42 5.6 27 -2.8 55 55 NW 9 15 29.96 1014 10 16 0.00 0.00
6:56 am 06:56 Clear 43 6.1 30 -1.1 60 60 NNW 12 19 29.99 1016 10 16 0.00 0.00
7:56 am 07:56 Sunny 47 8.3 31 -0.6 54 54 NNW 14 22 30.02 1017 10 16 0.00 0.00
8:56 am 08:56 Sunny 50 10 31 -0.6 48 48 NNW 18 30 30.04 1017 10 16 0.00 0.00
9:56 am 09:56 Sunny 55 12.8 31 -0.6 40 40 NNW 18 30 30.06 1018 10 16 0.00 0.00
10:56 am 10:56 Sunny 57 13.9 30 -1.1 36 36 NNW 17 28 30.08 1019 10 16 0.00 0.00
11:56 am 11:56 Sunny 60 15.6 23 -5 24 24 N 29 46 30.07 1018 10 16 0.00 0.00
12:56 pm 12:56 Sunny 59 15 23 -5 25 25 NNW 22 35 30.08 1019 10 16 0.00 0.00
1:56 pm 13:56 Sunny 59 15 25 -3.9 27 27 N 22 35 30.08 1019 10 16 0.00 0.00
2:56 pm 14:56 Sunny 59 15 26 -3.3 28 28 NNW 18 30 30.10 1019 10 16 0.00 0.00
3:56 pm 15:56 Sunny 57 13.9 25 -3.9 29 29 NNW 24 39 30.11 1020 10 16 0.00 0.00
4:56 pm 16:56 Sunny 53 11.7 26 -3.3 35 35 N 18 30 30.15 1021 10 16 0.00 0.00
5:56 pm 17:56 Clear 49 9.4 28 -2.2 44 44 N 13 20 30.19 1022 10 16 0.00 0.00
6:56 pm 18:56 Clear 45 7.2 28 -2.2 52 52 N 13 20 30.22 1023 10 16 0.00 0.00
7:56 pm 19:56 Clear 42 5.6 28 -2.2 58 58 NNW 9 15 30.25 1024 10 16 0.00 0.00
8:56 pm 20:56 Clear 40 4.4 28 -2.2 63 63 NNW 8 13 30.27 1025 10 16 0.00 0.00
9:56 pm 21:56 Clear 37 2.8 27 -2.8 67 67 NNW 9 15 30.27 1025 10 16 0.00 0.00
10:56 pm 22:56 Clear 38 3.3 27 -2.8 65 65 NNW 8 13 30.27 1025 10 16 0.00 0.00
11:56 pm 23:56 Clear 38 3.3 27 -2.8 65 65 NNW 7 11 30.28 1026 10 16 0.00 0.00

Powered by AerisWeather